DW8502 Weather Reports


time (UTC)temp
C
wind
direction
speed
KPH
gust
KPH
rain 1hr
cm
rain 24hr
cm
rain mn
cm
humidity
%
barometer
mb
20260507104828 8 0 0.0 0.0 0.05 0.66 0.43 99 1006.4
20260507103934 8 0 0.0 0.0 0.08 0.66 0.43 99 1006.2
20260507103027 8 0 0.0 0.0 0.08 0.66 0.43 99 1006.3
20260507101228 8 0 0.0 0.0 0.10 0.64 0.41 99 1006.7
20260507095427 8 0 0.0 0.0 0.08 0.61 0.38 98 1006.3
20260507094528 8 332 0.0 1.6 0.10 0.58 0.36 98 1006.5
20260507093627 8 0 0.0 0.0 0.13 0.58 0.36 98 1005.8
20260507092727 8 332 0.0 1.6 0.15 0.56 0.33 98 1006.0
20260507091827 8 332 0.0 3.2 0.18 0.56 0.33 98 1006.0
20260507085127 9 332 0.0 1.6 0.20 0.51 0.28 98 1005.8
20260507084227 9 332 0.0 1.6 0.18 0.48 0.25 98 1006.1
20260507083327 9 0 0.0 0.0 0.18 0.46 0.23 98 1006.1
20260507082428 10 0 0.0 0.0 0.15 0.41 0.18 97 1006.0
20260507081528 10 0 0.0 0.0 0.13 0.36 0.13 97 1005.9
20260507080627 10 0 0.0 0.0 0.13 0.36 0.13 97 1005.7
20260507075727 10 332 0.0 3.2 0.10 0.33 0.10 96 1006.3
20260507074827 10 332 0.0 3.2 0.08 0.30 0.08 96 1006.2
20260507073927 11 332 0.0 3.2 0.08 0.30 0.08 96 1006.1
20260507073027 11 332 0.0 3.2 0.03 0.25 0.05 95 1006.1
20260507072127 11 332 1.6 3.2 0.00 0.23 0.00 94 1005.5
20260507071227 11 332 0.0 1.6 0.00 0.23 0.00 94 1005.1
20260507070327 11 332 0.0 1.6 0.00 0.23 0.00 94 1004.8
20260507065427 11 332 0.0 4.8 0.00 0.23 0.00 94 1005.0
20260507064527 11 332 0.0 1.6 0.00 0.23 0.00 95 1005.0
20260507063627 12 332 1.6 4.8 0.00 0.23 0.00 95 1005.0
20260507062727 12 317 0.0 4.8 0.00 0.23 0.00 97 1005.2
20260507061827 12 0 0.0 0.0 0.00 0.23 0.00 98 1005.1
20260507060927 13 0 0.0 0.0 0.00 0.23 0.00 98 1005.0
20260507060027 13 0 0.0 0.0 0.00 0.23 0.00 98 1005.1
20260507054227 13 280 0.0 3.2 0.00 0.23 0.00 98 1005.3
20260507052427 13 279 0.0 3.2 0.00 0.23 0.00 98 1005.7
20260507051527 13 0 0.0 0.0 0.00 0.23 0.00 98 1005.4
20260507050627 13 0 0.0 0.0 0.00 0.23 0.00 98 1005.2
20260507045727 14 279 0.0 3.2 0.00 0.23 0.00 99 1005.2
20260507044827 14 279 0.0 4.8 0.03 0.23 0.00 98 1005.4
20260507043927 14 263 0.0 3.2 0.03 0.23 0.00 99 1005.2
20260507042127 14 0 0.0 0.0 0.03 0.23 0.00 99 1005.1
20260507041227 15 262 0.0 1.6 0.03 0.23 0.00 99 1005.1
20260507040327 15 0 0.0 0.0 0.03 0.23 0.00 99 1005.3
20260507035433 15 262 0.0 1.6 0.00 0.20 0.20 99 1005.2
20260507034527 15 255 1.6 8.0 0.00 0.20 0.20 99 1005.3
20260507033627 15 281 3.2 8.0 0.00 0.20 0.20 99 1005.4
20260507032727 15 286 3.2 8.0 0.00 0.20 0.20 99 1005.2
20260507031827 15 275 1.6 4.8 0.00 0.20 0.20 99 1005.0
20260507030927 15 271 1.6 6.4 0.00 0.20 0.20 99 1004.9
20260507030027 14 271 1.6 6.4 0.00 0.20 0.20 99 1005.0
20260507025127 14 278 1.6 4.8 0.00 0.20 0.20 99 1004.9
20260507024227 14 254 1.6 6.4 0.00 0.20 0.20 99 1005.0
20260507023327 14 236 1.6 4.8 0.00 0.20 0.20 99 1004.7
20260507020627 14 232 1.6 4.8 0.00 0.20 0.20 99 1004.9
20260507015728 14 242 1.6 4.8 0.00 0.20 0.20 99 1005.0
20260507014828 14 240 1.6 6.4 0.00 0.20 0.20 99 1004.8
20260507013927 14 231 1.6 4.8 0.00 0.20 0.20 99 1004.9
20260507013027 14 241 1.6 6.4 0.00 0.20 0.20 99 1004.9
20260507012127 14 263 1.6 6.4 0.00 0.20 0.20 99 1005.1
20260507010327 14 243 1.6 6.4 0.00 0.20 0.20 99 1005.2
20260507005427 14 240 1.6 6.4 0.00 0.20 0.20 99 1005.3
20260507004527 14 239 1.6 6.4 0.00 0.20 0.20 99 1005.3
20260507003627 14 242 1.6 8.0 0.00 0.20 0.20 99 1005.3
20260507001827 13 241 1.6 6.4 0.05 0.20 0.20 99 1005.1
20260507000927 14 223 0.0 6.4 0.08 0.20 0.20 98 1005.1
20260507000032 14 254 1.6 9.7 0.10 0.20 0.20 98 1005.1
20260506235127 14 268 1.6 4.8 0.10 0.20 0.20 98 1005.0
20260506234227 14 241 1.6 6.4 0.10 0.20 0.20 98 1005.0
20260506233327 14 229 1.6 6.4 0.08 0.18 0.18 98 1004.9
20260506232427 14 233 1.6 9.7 0.05 0.15 0.15 98 1004.9
20260506231527 14 233 1.6 9.7 0.05 0.15 0.15 98 1005.0
20260506230627 14 235 1.6 8.0 0.00 0.10 0.10 98 1005.0
20260506225727 14 239 1.6 4.8 0.00 0.10 0.10 98 1004.9
20260506224827 14 232 1.6 4.8 0.00 0.10 0.10 98 1005.0
20260506223927 14 232 1.6 6.4 0.00 0.10 0.10 98 1004.9
20260506223027 14 238 1.6 8.0 0.00 0.10 0.10 98 1004.8
20260506222127 15 205 1.6 9.7 0.00 0.10 0.10 98 1004.9
20260506220328 15 249 3.2 11.3 0.03 0.10 0.10 98 1005.3
20260506215428 15 244 1.6 8.0 0.03 0.10 0.10 98 1005.3
20260506214527 15 234 1.6 8.0 0.05 0.10 0.10 98 1005.3
20260506213627 15 277 1.6 6.4 0.05 0.10 0.10 98 1005.3
20260506212727 15 283 1.6 4.8 0.08 0.10 0.10 97 1005.5
20260506211827 15 232 1.6 6.4 0.08 0.10 0.10 97 1005.5
20260506210927 15 235 1.6 6.4 0.05 0.08 0.08 97 1005.7
20260506210027 15 240 1.6 6.4 0.05 0.08 0.08 97 1005.6
20260506205127 15 231 1.6 6.4 0.08 0.08 0.08 96 1005.7
20260506204227 15 234 1.6 6.4 0.05 0.05 0.05 96 1005.8
20260506203327 15 233 3.2 8.0 0.03 0.03 0.03 95 1005.9
20260506202427 15 229 1.6 11.3 0.03 0.03 0.03 95 1005.9
20260506200627 16 242 3.2 8.0 0.03 0.03 0.03 94 1006.0
20260506195728 16 244 3.2 8.0 0.03 0.03 0.03 94 1006.1
20260506194827 16 243 3.2 9.7 0.00 0.00 0.00 92 1006.0
20260506193027 17 255 1.6 4.8 0.00 0.00 0.00 91 1006.1
20260506192126 17 241 3.2 9.7 0.00 0.00 0.00 88 1006.1
20260506191226 17 252 3.2 9.7 0.00 0.00 0.00 87 1006.2
20260506190326 18 247 3.2 8.0 0.00 0.00 0.00 84 1006.2
20260506185426 18 247 4.8 9.7 0.00 0.00 0.00 80 1006.2
20260506184527 19 259 4.8 8.0 0.00 0.00 0.00 77 1006.2
20260506183628 20 258 4.8 12.9 0.00 0.00 0.00 75 1006.2
20260506182727 20 252 4.8 11.3 0.00 0.00 0.00 74 1006.4
20260506181827 21 250 4.8 11.3 0.00 0.00 0.00 73 1006.3
20260506180927 21 246 4.8 12.9 0.00 0.00 0.00 71 1006.4
20260506180026 21 239 4.8 12.9 0.00 0.00 0.00 71 1006.3
20260506175127 21 235 4.8 12.9 0.00 0.00 0.00 70 1006.5
20260506174227 21 242 3.2 9.7 0.00 0.00 0.00 69 1006.6
20260506173328 21 237 4.8 14.5 0.00 0.00 0.00 68 1006.8
20260506172426 22 252 4.8 16.1 0.00 0.00 0.00 68 1006.8
20260506171526 22 248 3.2 16.1 0.00 0.00 0.00 68 1006.8
20260506170626 22 254 4.8 16.1 0.00 0.00 0.00 69 1006.7
20260506165726 22 246 6.4 17.7 0.00 0.00 0.00 67 1006.6
20260506164827 22 248 4.8 16.1 0.00 0.00 0.00 68 1006.8
20260506163926 22 244 3.2 9.7 0.00 0.00 0.00 69 1007.0
20260506163026 22 248 3.2 12.9 0.00 0.00 0.00 68 1007.1
20260506162126 22 237 4.8 12.9 0.00 0.00 0.00 68 1007.2
20260506161226 22 236 3.2 11.3 0.00 0.00 0.00 68 1007.3
20260506160326 22 223 4.8 12.9 0.00 0.00 0.00 67 1007.5
20260506155426 22 224 3.2 14.5 0.00 0.00 0.00 67 1007.6
20260506154526 22 228 4.8 17.7 0.00 0.00 0.00 69 1007.7
20260506153626 22 236 3.2 11.3 0.00 0.00 0.00 68 1007.9
20260506152726 22 251 3.2 11.3 0.00 0.00 0.00 68 1007.8
20260506151826 22 231 4.8 12.9 0.00 0.00 0.00 69 1008.0
20260506150926 22 233 3.2 11.3 0.00 0.00 0.00 71 1008.1
20260506150027 21 226 3.2 9.7 0.00 0.00 0.00 70 1008.2
20260506144226 21 253 4.8 14.5 0.00 0.00 0.00 70 1008.2
20260506143326 21 243 3.2 9.7 0.00 0.00 0.00 70 1008.1
20260506142427 21 236 4.8 12.9 0.00 0.00 0.00 71 1008.0
20260506141526 21 233 3.2 8.0 0.00 0.00 0.00 71 1008.0
20260506140626 21 242 3.2 11.3 0.00 0.00 0.00 72 1008.1
20260506135727 21 238 4.8 9.7 0.00 0.00 0.00 72 1008.1
20260506134826 21 235 3.2 14.5 0.00 0.00 0.00 72 1008.2
20260506133926 21 252 3.2 12.9 0.00 0.00 0.00 75 1008.0
20260506133026 20 249 3.2 9.7 0.00 0.00 0.00 77 1008.4
20260506132126 19 248 3.2 9.7 0.00 0.00 0.00 80 1008.7
20260506131226 18 220 3.2 8.0 0.00 0.00 0.00 81 1008.8
20260506125426 18 215 1.6 8.0 0.00 0.00 0.00 83 1008.8
20260506124526 17 228 1.6 6.4 0.00 0.00 0.00 84 1008.8
20260506122726 17 242 1.6 6.4 0.00 0.00 0.00 86 1008.8
20260506121826 17 246 1.6 6.4 0.00 0.00 0.00 87 1008.8
20260506120926 16 255 1.6 4.8 0.00 0.00 0.00 88 1008.7
20260506115126 16 255 1.6 6.4 0.00 0.00 0.00 90 1009.1
20260506114226 16 243 1.6 4.8 0.00 0.00 0.00 90 1009.2
20260506113326 16 228 1.6 8.0 0.00 0.00 0.00 90 1009.3
20260506112426 15 228 3.2 8.0 0.00 0.00 0.00 91 1009.3
20260506110626 15 248 1.6 6.4 0.00 0.00 0.00 92 1009.2